This is the latest recevied weather packets stored in our database for station/object DG1ROH. If no packets are shown the sender has not sent any weather packets the latest 10 day(s).
| Time | Temp. | Humidity | Pressure | Rain* | Wind** | Luminosity | Snow |
|---|---|---|---|---|---|---|---|
| 1777624499 | 18.33° C | 47% | 1028.8 hPa | 0 mm | - | 596 W/m² | - |
| 1777624379 | 18.33° C | 48% | 1028.9 hPa | 0 mm | - | 591 W/m² | - |
| 1777624259 | 17.78° C | 48% | 1028.8 hPa | 0 mm | - | 587 W/m² | - |
| 1777624137 | 17.78° C | 48% | 1028.9 hPa | 0 mm | - | 584 W/m² | - |
| 1777624017 | 18.33° C | 46% | 1028.8 hPa | 0 mm | - | 578 W/m² | - |
| 1777623896 | 17.78° C | 47% | 1028.9 hPa | 0 mm | - | 575 W/m² | - |
| 1777623777 | 17.78° C | 48% | 1028.9 hPa | 0 mm | - | 571 W/m² | - |
| 1777623658 | 17.78° C | 50% | 1028.9 hPa | 0 mm | - | 566 W/m² | - |
| 1777623537 | 17.78° C | 48% | 1028.9 hPa | 0 mm | - | 561 W/m² | - |
| 1777623416 | 17.78° C | 49% | 1028.9 hPa | 0 mm | - | 559 W/m² | - |
| 1777623297 | 17.78° C | 50% | 1029 hPa | 0 mm | - | 555 W/m² | - |
| 1777623177 | 17.78° C | 51% | 1028.9 hPa | 0 mm | - | 550 W/m² | - |
| 1777623057 | 17.22° C | 50% | 1028.9 hPa | 0 mm | - | 548 W/m² | - |
| 1777622937 | 16.67° C | 53% | 1028.9 hPa | 0 mm | - | 540 W/m² | - |
| 1777622817 | 16.67° C | 52% | 1028.9 hPa | 0 mm | - | 538 W/m² | - |
| 1777622696 | 16.67° C | 53% | 1029 hPa | 0 mm | - | 531 W/m² | - |
| 1777622574 | 16.67° C | 53% | 1028.9 hPa | 0 mm | - | 499 W/m² | - |
| 1777622450 | 16.11° C | 54% | 1028.9 hPa | 0 mm | - | 489 W/m² | - |
| 1777622330 | 16.11° C | 53% | 1029 hPa | 0 mm | - | 432 W/m² | - |
| 1777622210 | 16.11° C | 56% | 1028.9 hPa | 0 mm | - | 318 W/m² | - |
| 1777622091 | 16.11° C | 55% | 1029 hPa | 0 mm | - | 148 W/m² | - |
| 1777621972 | 16.11° C | 55% | 1028.9 hPa | 0 mm | - | 72 W/m² | - |
| 1777621847 | 16.11° C | 55% | 1028.9 hPa | 0 mm | - | 58 W/m² | - |
| 1777621727 | 15.56° C | 57% | 1028.9 hPa | 0 mm | - | 44 W/m² | - |
| 1777621607 | 15.56° C | 56% | 1029 hPa | 0 mm | - | 40 W/m² | - |
* Rain latest hour (hover to see other rain measurements)
** Current wind speed in m/s (hover to see current wind gust speed)